Other Public Products
Issued by NWS Charleston, SC

Current Version | Previous Version | Text Only | Print | Product List | Glossary Off
Versions: 1 2 3 4 5 6 7 8 9 10 11 12 13 14 15 16 17 18 19 20 21 22 23 24 25 26 27 28 29 30 31 32 33 34 35 36 37 38 39 40 41 42 43 44 45 46 47 48 49 50
556 FPUS82 KCHS 242027 OPUCHS TEST...KCHS/KSAV Gateway Observations...TEST National Weather Service Charleston SC 400 PM EDT TUE APR 24 2018 NOTE: "fair" indicates few or no clouds below 12,000 feet with no significant weather and/or obstructions to visibility. SCZ050-WAZ558-NCZ071-TXZ119-213-PAZ071-DCZ001-FLZ074-172-MI076- NYZ176-178-MAZ016-IL014-TNZ027-NJZ106-GAZ044-MD014-242100- ...Gateway Observations for Charleston International... CITY SKY/WX TMP DP RH WIND PRES REMARKS Chas Airport FAIR 76 63 64 S16G22 29.79F Seattle PTSUNNY 73 37 27 NW9 30.14F Charlotte PTSUNNY 71 62 73 E12 29.77F Dallas DFW MOSUNNY 82 48 30 VRB3 30.04F Dallas Love MOSUNNY 82 50 32 CALM 30.04F Philladelphia CLOUDY 63 45 51 SE10G21 30.22F Wash National LGT RAIN 60 50 69 E8 30.12F Baltimore CLOUDY 62 48 60 SE15 30.13F Miami PTSUNNY 88 69 53 S9 29.89F HX 92 Detroit RAIN 54 50 86 E9 30.03F FOG Newark CLOUDY 60 43 53 SE14G24 30.28F Laguardia CLOUDY 63 39 41 SE17 30.27F J F K PTSUNNY 58 45 62 SE17 30.29F Boston Logan FAIR 66 37 34 S17 30.27F Ft. Lauderdale FAIR 89 73 59 SW14 29.86F HX 97 Chicago O`Hare FAIR 64 47 53 N14 29.99F Chicago Midway PTSUNNY 63 49 60 NE8 29.99F Houston Bush PTSUNNY 83 55 38 W8 30.03F Houston Hobby PTSUNNY 83 54 36 NW9 30.03F Nashville PTSUNNY 62 56 80 NW10 29.90F Atlanta FAIR 68 57 68 W14G21 29.86F $$ GAZ044-118-TXZ119-213-NCZ071-DCZ001-MDZ014-506-PAZ021-071-NJZ106- NYZ176-178-MAZ106-OHZ011-021-055-MIZ076-KYZ091-ILZ014-INZ047- MNZ060-ONZ431-242100- ...Gateway Observations for Savannah International... CITY SKY/WX TMP DP RH WIND PRES REMARKS Savannah Arpt PTSUNNY 79 54 41 W15G22 29.82F Atlanta FAIR 68 57 68 W14G21 29.86F Charlotte PTSUNNY 71 62 73 E12 29.77F Dallas DFW MOSUNNY 82 48 30 VRB3 30.04F Houston Bush PTSUNNY 83 55 38 W8 30.03F Wash National LGT RAIN 60 50 69 E8 30.12F Wash Dulles LGT RAIN 57 53 86 E10 30.11F Baltimore CLOUDY 62 48 60 SE15 30.13F Philadelphia CLOUDY 63 45 51 SE10G21 30.22F Newark CLOUDY 60 43 53 SE14G24 30.28F Laguardia CLOUDY 63 39 41 SE17 30.27F J F K PTSUNNY 58 45 62 SE17 30.29F Boston FAIR 66 37 34 S17 30.27F Pittsburg LGT RAIN 54 50 86 E13 30.02F Akron LGT RAIN 53 49 86 E12 30.01F FOG Cleveland LGT RAIN 55 51 86 E8 30.03F Cincinnati DRIZZLE 55 55 100 NE9 29.89F FOG Columbus CLOUDY 54 53 99 E12 29.92F Detroit RAIN 54 50 86 E9 30.03F FOG Chicago O`Hare FAIR 64 47 53 N14 29.99F Minneapolis PTSUNNY 64 33 31 N18 30.16S Indianapolis CLOUDY 57 52 83 N7 29.93F Toronto Canada CLOUDY 63 41 45 S8 30.09F $$

USA.gov is the U.S. government's official web portal to all federal, state and local government web resources and services.